Time,TemperatureF,DewpointF,PressureIn,WindDirection,WindDirectionDegrees,WindSpeedMPH,WindSpeedGustMPH,Humidity,HourlyPrecipIn,Conditions,Clouds,dailyrainin,SoftwareType,DateUTC
2013-04-09 00:02:00,18.6,11.0,30.43,North,4,9.0,13.0,72,0.00,,,0.00,weatherlink.com 1.10,2013-04-09 05:02:00,
2013-04-09 00:17:00,18.3,10.0,30.42,North,5,10.0,14.0,71,0.00,,,0.00,weatherlink.com 1.10,2013-04-09 05:17:00,
2013-04-09 00:33:00,18.1,10.0,30.43,NW,322,6.0,14.0,70,0.00,,,0.00,weatherlink.com 1.10,2013-04-09 05:33:00,
2013-04-09 00:48:00,17.8,10.0,30.43,NNW,340,8.0,13.0,71,0.00,,,0.00,weatherlink.com 1.10,2013-04-09 05:48:00,
2013-04-09 01:03:00,17.7,10.0,30.43,North,8,5.0,13.0,71,0.00,,,0.00,weatherlink.com 1.10,2013-04-09 06:03:00,
2013-04-09 01:18:00,17.3,10.0,30.44,NNW,345,9.0,13.0,72,0.00,,,0.00,weatherlink.com 1.10,2013-04-09 06:18:00,
2013-04-09 01:33:00,17.1,9.0,30.43,North,6,3.0,15.0,71,0.00,,,0.00,weatherlink.com 1.10,2013-04-09 06:33:00,
2013-04-09 01:48:00,17.0,9.0,30.41,NNW,334,6.0,14.0,72,0.00,,,0.00,weatherlink.com 1.10,2013-04-09 06:48:00,
2013-04-09 02:03:00,16.7,9.0,30.42,NNW,334,3.0,11.0,70,0.00,,,0.00,weatherlink.com 1.10,2013-04-09 07:03:00,
2013-04-09 02:18:00,16.3,8.0,30.43,North,11,4.0,11.0,71,0.00,,,0.00,weatherlink.com 1.10,2013-04-09 07:18:00,
2013-04-09 02:33:00,16.0,8.0,30.44,NNE,12,7.0,10.0,71,0.00,,,0.00,weatherlink.com 1.10,2013-04-09 07:33:00,
2013-04-09 02:48:00,15.9,8.0,30.43,North,350,5.0,13.0,72,0.00,,,0.00,weatherlink.com 1.10,2013-04-09 07:48:00,
2013-04-09 03:03:00,15.7,8.0,30.45,North,354,3.0,9.0,71,0.00,,,0.00,weatherlink.com 1.10,2013-04-09 08:03:00,
2013-04-09 03:18:00,15.4,7.0,30.45,NNW,332,4.0,13.0,70,0.00,,,0.00,weatherlink.com 1.10,2013-04-09 08:18:00,
2013-04-09 03:33:00,15.4,8.0,30.46,North,1,6.0,10.0,71,0.00,,,0.00,weatherlink.com 1.10,2013-04-09 08:33:00,
2013-04-09 03:48:00,15.5,9.0,30.45,NNW,333,3.0,13.0,74,0.00,,,0.00,weatherlink.com 1.10,2013-04-09 08:48:00,
2013-04-09 04:03:00,15.1,8.0,30.44,NNW,333,6.0,12.0,72,0.00,,,0.00,weatherlink.com 1.10,2013-04-09 09:03:00,
2013-04-09 04:18:00,15.0,8.0,30.45,NNW,328,3.0,9.0,74,0.00,,,0.00,weatherlink.com 1.10,2013-04-09 09:18:00,
2013-04-09 04:33:00,14.9,8.0,30.46,NNW,343,5.0,10.0,75,0.00,,,0.00,weatherlink.com 1.10,2013-04-09 09:33:00,
2013-04-09 04:48:00,14.7,8.0,30.47,North,356,5.0,8.0,75,0.00,,,0.00,weatherlink.com 1.10,2013-04-09 09:48:00,
2013-04-09 05:03:00,14.5,8.0,30.46,North,3,7.0,10.0,74,0.00,,,0.00,weatherlink.com 1.10,2013-04-09 10:03:00,
2013-04-09 05:33:00,14.2,7.0,30.44,NNE,23,2.0,9.0,74,0.00,,,0.00,weatherlink.com 1.10,2013-04-09 10:33:00,
2013-04-09 05:48:00,14.0,7.0,30.44,NNW,330,3.0,11.0,73,0.00,,,0.00,weatherlink.com 1.10,2013-04-09 10:48:00,
2013-04-09 06:03:00,13.9,7.0,30.44,North,7,6.0,11.0,74,0.00,,,0.00,weatherlink.com 1.10,2013-04-09 11:03:00,
2013-04-09 06:18:00,13.9,7.0,30.45,North,1,7.0,10.0,74,0.00,,,0.00,weatherlink.com 1.10,2013-04-09 11:18:00,
2013-04-09 06:33:00,13.7,7.0,30.45,NNW,328,2.0,11.0,75,0.00,,,0.00,weatherlink.com 1.10,2013-04-09 11:33:00,
2013-04-09 07:03:00,13.6,7.0,30.45,NNW,345,7.0,11.0,75,0.00,,,0.00,weatherlink.com 1.10,2013-04-09 12:03:00,
2013-04-09 07:18:00,13.7,7.0,30.46,NNE,17,5.0,11.0,73,0.00,,,0.00,weatherlink.com 1.10,2013-04-09 12:18:00,
2013-04-09 07:33:00,13.7,6.0,30.46,North,350,5.0,12.0,72,0.00,,,0.00,weatherlink.com 1.10,2013-04-09 12:33:00,
2013-04-09 08:03:00,13.7,6.0,30.47,North,359,9.0,11.0,72,0.00,,,0.00,weatherlink.com 1.10,2013-04-09 13:03:00,
2013-04-09 08:18:00,14.1,7.0,30.49,North,350,6.0,9.0,73,0.00,,,0.00,weatherlink.com 1.10,2013-04-09 13:18:00,
2013-04-09 08:49:00,14.5,7.0,30.51,NNE,33,11.0,14.0,72,0.00,,,0.00,weatherlink.com 1.10,2013-04-09 13:49:00,
2013-04-09 09:04:00,14.3,7.0,30.50,NNW,347,4.0,14.0,73,0.00,,,0.00,weatherlink.com 1.10,2013-04-09 14:04:00,
2013-04-09 09:49:00,14.3,7.0,30.52,NNW,345,7.0,13.0,74,0.00,,,0.00,weatherlink.com 1.10,2013-04-09 14:49:00,
2013-04-09 10:04:00,14.9,8.0,30.52,NNE,26,9.0,11.0,73,0.00,,,0.00,weatherlink.com 1.10,2013-04-09 15:04:00,
2013-04-09 10:19:00,15.1,8.0,30.52,NE,53,4.0,12.0,73,0.00,,,0.00,weatherlink.com 1.10,2013-04-09 15:19:00,
2013-04-09 10:34:00,15.5,8.0,30.52,NNW,344,4.0,10.0,71,0.00,,,0.00,weatherlink.com 1.10,2013-04-09 15:34:00,
2013-04-09 10:49:00,15.9,8.0,30.53,North,5,6.0,10.0,72,0.00,,,0.00,weatherlink.com 1.10,2013-04-09 15:49:00,
2013-04-09 11:04:00,16.7,9.0,30.54,NNW,335,4.0,10.0,72,0.00,,,0.00,weatherlink.com 1.10,2013-04-09 16:04:00,
2013-04-09 11:19:00,17.4,10.0,30.54,NW,323,7.0,9.0,72,0.00,,,0.00,weatherlink.com 1.10,2013-04-09 16:19:00,
2013-04-09 11:34:00,17.5,10.0,30.54,NNE,26,4.0,9.0,72,0.00,,,0.00,weatherlink.com 1.10,2013-04-09 16:34:00,
2013-04-09 11:49:00,18.2,11.0,30.54,NNE,17,4.0,10.0,74,0.00,,,0.00,weatherlink.com 1.10,2013-04-09 16:49:00,
2013-04-09 12:04:00,18.3,11.0,30.54,WNW,303,8.0,10.0,73,0.00,,,0.00,weatherlink.com 1.10,2013-04-09 17:04:00,
2013-04-09 12:19:00,19.0,12.0,30.53,WNW,302,5.0,9.0,75,0.00,,,0.00,weatherlink.com 1.10,2013-04-09 17:19:00,
2013-04-09 12:34:00,19.9,13.0,30.52,NNW,339,2.0,11.0,75,0.00,,,0.00,weatherlink.com 1.10,2013-04-09 17:34:00,
2013-04-09 12:49:00,20.5,13.0,30.51,NW,312,2.0,11.0,74,0.00,,,0.00,weatherlink.com 1.10,2013-04-09 17:49:00,
2013-04-09 13:04:00,21.0,14.0,30.52,NNW,339,4.0,9.0,75,0.00,,,0.00,weatherlink.com 1.10,2013-04-09 18:04:00,
2013-04-09 13:34:00,21.8,15.0,30.52,North,352,5.0,9.0,74,0.00,,,0.00,weatherlink.com 1.10,2013-04-09 18:34:00,
2013-04-09 13:49:00,23.0,16.0,30.52,NW,311,4.0,13.0,73,0.00,,,0.00,weatherlink.com 1.10,2013-04-09 18:49:00,
2013-04-09 14:04:00,24.0,17.0,30.51,North,1,6.0,11.0,73,0.00,,,0.00,weatherlink.com 1.10,2013-04-09 19:04:00,
2013-04-09 14:19:00,24.9,18.0,30.49,NNW,340,4.0,10.0,75,0.00,,,0.00,weatherlink.com 1.10,2013-04-09 19:19:00,
2013-04-09 14:49:00,25.4,18.0,30.47,NNE,15,6.0,13.0,72,0.00,,,0.00,weatherlink.com 1.10,2013-04-09 19:49:00,
2013-04-09 15:04:00,25.8,18.0,30.47,NNW,345,4.0,13.0,73,0.00,,,0.00,weatherlink.com 1.10,2013-04-09 20:04:00,
2013-04-09 15:19:00,26.9,18.0,30.49,North,354,7.0,12.0,70,0.00,,,0.00,weatherlink.com 1.10,2013-04-09 20:19:00,
2013-04-09 15:34:00,26.7,17.0,30.50,NNW,345,3.0,14.0,68,0.00,,,0.00,weatherlink.com 1.10,2013-04-09 20:34:00,
2013-04-09 15:49:00,27.2,18.0,30.51,NW,324,5.0,13.0,67,0.00,,,0.00,weatherlink.com 1.10,2013-04-09 20:49:00,
2013-04-09 16:04:00,27.0,18.0,30.50,NNE,33,3.0,9.0,69,0.00,,,0.00,weatherlink.com 1.10,2013-04-09 21:04:00,
2013-04-09 16:34:00,26.4,18.0,30.46,NNW,334,9.0,13.0,70,0.00,,,0.00,weatherlink.com 1.10,2013-04-09 21:34:00,
2013-04-09 16:49:00,26.7,18.0,30.45,NNE,19,5.0,15.0,70,0.00,,,0.00,weatherlink.com 1.10,2013-04-09 21:49:00,
2013-04-09 17:04:00,26.7,17.0,30.46,NNE,17,5.0,15.0,67,0.00,,,0.00,weatherlink.com 1.10,2013-04-09 22:04:00,
2013-04-09 17:19:00,26.5,17.0,30.46,North,350,6.0,13.0,67,0.00,,,0.00,weatherlink.com 1.10,2013-04-09 22:19:00,
2013-04-09 17:35:00,26.3,16.0,30.47,NNW,339,8.0,13.0,66,0.00,,,0.00,weatherlink.com 1.10,2013-04-09 22:35:00,
2013-04-09 17:49:00,26.1,16.0,30.48,NNE,19,6.0,13.0,67,0.00,,,0.00,weatherlink.com 1.10,2013-04-09 22:49:00,
2013-04-09 18:05:00,25.9,17.0,30.50,North,8,4.0,10.0,70,0.00,,,0.00,weatherlink.com 1.10,2013-04-09 23:05:00,
2013-04-09 18:20:00,25.8,16.0,30.48,North,353,5.0,12.0,67,0.00,,,0.00,weatherlink.com 1.10,2013-04-09 23:20:00,
2013-04-09 18:35:00,25.7,17.0,30.47,North,11,5.0,13.0,70,0.00,,,0.00,weatherlink.com 1.10,2013-04-09 23:35:00,
2013-04-09 18:50:00,25.5,17.0,30.46,NNW,339,7.0,11.0,70,0.00,,,0.00,weatherlink.com 1.10,2013-04-09 23:50:00,
2013-04-09 19:05:00,25.4,17.0,30.46,North,351,7.0,10.0,70,0.00,,,0.00,weatherlink.com 1.10,2013-04-10 00:05:00,
2013-04-09 19:20:00,25.3,17.0,30.45,NNW,332,5.0,11.0,71,0.00,,,0.00,weatherlink.com 1.10,2013-04-10 00:20:00,
2013-04-09 19:35:00,25.1,17.0,30.44,NW,323,7.0,10.0,71,0.00,,,0.00,weatherlink.com 1.10,2013-04-10 00:35:00,
2013-04-09 19:50:00,24.8,17.0,30.43,NE,37,6.0,9.0,73,0.00,,,0.00,weatherlink.com 1.10,2013-04-10 00:50:00,
2013-04-09 20:05:00,24.4,17.0,30.44,NE,43,5.0,14.0,72,0.00,,,0.00,weatherlink.com 1.10,2013-04-10 01:05:00,
2013-04-09 20:20:00,24.1,17.0,30.44,North,359,6.0,11.0,73,0.00,,,0.00,weatherlink.com 1.10,2013-04-10 01:20:00,
2013-04-09 20:35:00,23.9,17.0,30.44,NNW,342,8.0,12.0,74,0.00,,,0.00,weatherlink.com 1.10,2013-04-10 01:35:00,
2013-04-09 20:50:00,23.8,17.0,30.46,NNW,342,4.0,11.0,75,0.00,,,0.00,weatherlink.com 1.10,2013-04-10 01:50:00,
2013-04-09 21:05:00,23.9,17.0,30.46,NW,316,3.0,9.0,74,0.00,,,0.00,weatherlink.com 1.10,2013-04-10 02:05:00,
2013-04-09 21:20:00,23.9,17.0,30.47,NNE,26,4.0,9.0,74,0.00,,,0.00,weatherlink.com 1.10,2013-04-10 02:20:00,
2013-04-09 21:35:00,23.9,16.0,30.47,North,8,6.0,10.0,73,0.00,,,0.00,weatherlink.com 1.10,2013-04-10 02:35:00,
2013-04-09 21:50:00,24.0,17.0,30.48,NNW,347,4.0,8.0,73,0.00,,,0.00,weatherlink.com 1.10,2013-04-10 02:50:00,
2013-04-09 22:05:00,24.0,17.0,30.47,NNW,338,4.0,9.0,74,0.00,,,0.00,weatherlink.com 1.10,2013-04-10 03:05:00,
2013-04-09 22:20:00,23.9,17.0,30.47,North,359,5.0,9.0,76,0.00,,,0.00,weatherlink.com 1.10,2013-04-10 03:20:00,
2013-04-09 22:35:00,23.8,17.0,30.47,NNE,28,8.0,8.0,76,0.00,,,0.00,weatherlink.com 1.10,2013-04-10 03:35:00,
2013-04-09 22:50:00,23.8,18.0,30.48,NNW,335,4.0,10.0,77,0.00,,,0.00,weatherlink.com 1.10,2013-04-10 03:50:00,
2013-04-09 23:05:00,23.9,17.0,30.48,North,356,4.0,8.0,76,0.00,,,0.00,weatherlink.com 1.10,2013-04-10 04:05:00,
2013-04-09 23:20:00,23.9,17.0,30.47,NNW,336,6.0,8.0,76,0.00,,,0.00,weatherlink.com 1.10,2013-04-10 04:20:00,
2013-04-09 23:35:00,23.9,17.0,30.47,North,5,7.0,9.0,76,0.00,,,0.00,weatherlink.com 1.10,2013-04-10 04:35:00,
2013-04-09 23:50:00,23.7,18.0,30.47,NNW,338,3.0,9.0,77,0.00,,,0.00,weatherlink.com 1.10,2013-04-10 04:50:00,